Flag for Kazakhstan Weather past 2 weeks in Shymkent, Kazakhstan

Now
46 °F

Mostly cloudy.


Feels Like: 45 °F
Forecast: 34 / 54 °F
Wind: 3 mph from Northwest

Location: Shymkent Airport

Current Time: Apr 1, 2015 at 3:44:53 PM

Latest Report: Apr 1, 2015 at 3:00 PM


Visibility: N/A

Pressure: 29.89 "Hg

Humidity: 57%

Dew point: 32 °F

Location of ShymkentLocation

Historic Weather in Shymkent — Graph

°F

Shymkent temperature yesterday

Maximum temperature yesterday: 48 °F (at 2:30 PM)
Minimum temperature yesterday: 18 °F (at 4:30 AM)
Average temperature yesterday: 33 °F

Past Weeks' High & Low Weather Summary

 TemperatureHumidityPressure
High73 °F (Mar 23, 2:00 PM)100% (Mar 20, 2:30 AM)30.51 "Hg (Mar 20, 2:30 AM)
Low10 °F (Mar 30, 7:00 AM)25% (Mar 17, 3:30 PM)29.50 "Hg (Mar 24, 1:30 AM)
Average46 °F69%30.17 "Hg
* Reported Mar 17 2:00 PM — Apr 1 2:30 PM, Shymkent, Weather by CustomWeather, © 2015

Note: Actual official high and low records may vary slightly from our data, if they occured in-between our weather recording intervals... More about our weather records

Advertising

Shymkent weather history for previous 24 hours

 ConditionsComfort  
Time TempWeatherWind HumidityBarometerVisibility
2:30 PM
Wed, Apr 1
46 °FMostly cloudy.6 mph57%29.89 "HgN/A
2:00 PM46 °FMostly cloudy.6 mph57%29.89 "HgN/A
1:30 PM48 °FMostly cloudy.1 mph46%29.89 "HgN/A
1:00 PM46 °FMostly cloudy.1 mph50%29.89 "HgN/A
12:30 PM48 °FMore clouds than sun.1 mph50%29.89 "HgN/A
12:00 PM46 °FMostly cloudy.1 mph53%29.89 "HgN/A
11:30 AM46 °FMostly cloudy.6 mph53%29.89 "HgN/A
11:00 AM45 °FMostly cloudy.3 mph57%29.89 "Hg5 mi
10:30 AM43 °FMostly cloudy.1 mph61%29.89 "Hg5 mi
10:00 AM41 °FMore clouds than sun.No wind61%29.89 "Hg3 mi
9:30 AM41 °FMore clouds than sun.1 mph61%29.89 "Hg5 mi
8:30 AM39 °FClear.1 mph65%29.89 "Hg5 mi
8:00 AM37 °FSunny.1 mph70%29.89 "Hg10 mi
7:30 AM37 °FMore clouds than sun.1 mph70%29.86 "HgN/A
7:00 AM37 °FMostly cloudy.3 mph65%29.86 "HgN/A
6:30 AM36 °FMostly cloudy.3 mph70%29.89 "HgN/A
6:00 AM37 °FMostly cloudy.No wind65%29.89 "HgN/A
5:30 AM37 °FMostly cloudy.3 mph60%29.89 "HgN/A
5:00 AM36 °FMostly cloudy.8 mph65%29.89 "HgN/A
4:30 AM36 °FMostly cloudy.3 mph65%29.89 "HgN/A
4:00 AM36 °FMostly cloudy.6 mph60%29.89 "HgN/A
3:30 AM36 °FMostly cloudy.6 mph60%29.92 "HgN/A
3:00 AM37 °FMostly cloudy.3 mph56%29.92 "HgN/A
2:30 AM36 °FMostly cloudy.3 mph60%29.92 "HgN/A
2:00 AM36 °FMostly cloudy.No wind60%29.92 "HgN/A
1:30 AM37 °FMostly cloudy.1 mph52%29.92 "HgN/A
1:00 AM36 °FMostly cloudy.1 mph60%29.92 "HgN/A
12:30 AM36 °FClear.1 mph60%29.92 "Hg10 mi
12:00 AM37 °FClear.1 mph56%29.92 "Hg10 mi
11:30 PM
Tue, Mar 31
37 °FPassing clouds.3 mph56%29.89 "HgN/A
11:00 PM37 °FPassing clouds.3 mph60%29.89 "HgN/A
10:30 PM37 °FClear.8 mph60%29.89 "Hg10 mi
10:00 PM37 °FClear.6 mph60%29.89 "Hg10 mi
9:30 PM39 °FClear.8 mph52%29.89 "Hg10 mi
9:00 PM39 °FPassing clouds.8 mph61%29.89 "HgN/A
8:30 PM41 °FClear.8 mph53%29.89 "Hg10 mi
8:00 PM39 °FClear.8 mph45%29.86 "Hg10 mi
7:30 PM39 °FSunny.13 mph42%29.86 "Hg10 mi
7:00 PM41 °FSunny.17 mph36%29.86 "Hg10 mi
6:30 PM41 °FSunny.13 mph36%29.89 "Hg10 mi
6:00 PM41 °FSunny.15 mph42%29.89 "Hg10 mi
5:30 PM43 °FSunny.15 mph36%29.92 "Hg10 mi
5:00 PM45 °FSunny.13 mph37%29.92 "Hg10 mi
4:30 PM45 °FSunny.13 mph37%29.92 "Hg10 mi
4:00 PM46 °FSunny.10 mph40%29.95 "Hg10 mi
3:30 PM48 °FSunny.8 mph37%29.98 "Hg10 mi
3:00 PM48 °FSunny.8 mph34%30.01 "Hg10 mi
Weather by CustomWeather, © 2015

See weather overviewHow to use our weather pages